This is the latest recevied weather packets stored in our database for station/object KK6LZB. If no packets are shown the sender has not sent any weather packets the latest 10 day(s).
| Time | Temp. | Humidity | Pressure | Rain* | Wind** | Luminosity | Snow |
|---|---|---|---|---|---|---|---|
| 1778030077 | 17.78° C | 68% | 1016.6 hPa | 0 mm | - | 96 W/m² | - |
| 1778029773 | 17.78° C | 70% | 1016.5 hPa | 0 mm | - | 102 W/m² | - |
| 1778029472 | 18.33° C | 70% | 1016.7 hPa | 0 mm | - | 116 W/m² | - |
| 1778029168 | 18.33° C | 68% | 1016.7 hPa | 0 mm | - | 129 W/m² | - |
| 1778028866 | 18.33° C | 69% | 1016.7 hPa | 0 mm | - | 137 W/m² | - |
| 1778028561 | 18.33° C | 66% | 1016.7 hPa | 0 mm | - | 149 W/m² | - |
| 1778028259 | 18.33° C | 66% | 1016.6 hPa | 0 mm | - | 161 W/m² | - |
| 1778027955 | 18.89° C | 64% | 1016.6 hPa | 0 mm | - | 172 W/m² | - |
| 1778027651 | 18.89° C | 64% | 1016.4 hPa | 0 mm | - | 184 W/m² | - |
| 1778027348 | 18.89° C | 63% | 1016.4 hPa | 0 mm | - | 196 W/m² | - |
| 1778027044 | 19.44° C | 63% | 1016.4 hPa | 0 mm | - | 209 W/m² | - |
| 1778026739 | 18.33° C | 64% | 1016.6 hPa | 0 mm | - | 221 W/m² | - |
| 1778026437 | 20° C | 63% | 1016.7 hPa | 0 mm | - | 237 W/m² | - |
| 1778026134 | 19.44° C | 63% | 1016.6 hPa | 0 mm | - | 250 W/m² | - |
| 1778025832 | 19.44° C | 63% | 1016.6 hPa | 0 mm | - | 266 W/m² | - |
| 1778025528 | 18.89° C | 67% | 1016.6 hPa | 0 mm | - | 284 W/m² | - |
| 1778025226 | 17.78° C | 68% | 1016.6 hPa | 0 mm | - | 304 W/m² | - |
| 1778024922 | 18.33° C | 68% | 1016.4 hPa | 0 mm | - | 203 W/m² | - |
| 1778024620 | 18.33° C | 70% | 1016.4 hPa | 0 mm | - | 95 W/m² | - |
| 1778024317 | 17.22° C | 70% | 1016.6 hPa | 0 mm | - | 363 W/m² | - |
| 1778024015 | 17.78° C | 70% | 1016.6 hPa | 0 mm | - | 91 W/m² | - |
| 1778023712 | 18.89° C | 67% | 1016.5 hPa | 0 mm | - | 398 W/m² | - |
| 1778023410 | 18.33° C | 68% | 1016.6 hPa | 0 mm | - | 396 W/m² | - |
| 1778023106 | 18.89° C | 66% | 1016.6 hPa | 0 mm | - | 395 W/m² | - |
| 1778022804 | 18.89° C | 68% | 1016.6 hPa | 0 mm | - | 301 W/m² | - |
* Rain latest hour (hover to see other rain measurements)
** Current wind speed in m/s (hover to see current wind gust speed)